Theta_e
331 339 347 348 349 349 349 349 349 350 350 349 348 346 345 344 343 344 340 339 340 339 338 339 340 339 340 340 340 338 338 337 337 338 339 340 340 340 340 338 337 331 334
334 337 346 348 349 349 349 348 348 348 348 348 346 345 343 342 341 340 340 341 339 337 338 339 339 339 339 338 339 337 335 335 335 335 335 337 337 337 336 335 336 330 334
334 343 344 346 348 347 347 348 348 347 348 346 345 344 342 344 340 338 338 337 338 337 337 339 339 340 339 338 337 336 334 334 333 332 331 324 327 333 334 332 332 334 334
341 342 342 343 346 347 348 348 348 347 347 345 343 344 343 343 341 338 337 339 337 337 338 339 339 339 337 338 336 335 333 333 331 329 323 323 325 332 333 333 333 332 332
338 340 339 343 345 346 347 346 346 346 346 345 344 342 342 341 339 337 336 336 336 336 337 338 338 337 336 336 334 333 332 331 329 325 322 322 323 332 334 332 331 331 332
337 338 340 343 344 344 344 343 343 343 343 342 339 343 342 341 340 339 337 335 335 335 336 336 336 334 334 336 334 333 331 331 326 321 321 326 324 334 334 333 331 331 331
335 337 339 342 342 342 341 341 341 341 341 341 340 342 341 341 340 338 336 335 334 334 335 332 331 332 332 333 333 332 331 329 321 321 322 323 326 333 333 332 331 331 330
335 336 337 335 337 339 339 339 339 340 339 340 341 341 340 339 341 338 336 335 334 333 331 330 329 330 332 333 332 331 330 327 323 322 323 324 332 333 333 332 332 331 331
334 333 333 335 333 333 335 335 336 337 337 336 335 333 333 337 339 339 337 335 333 332 331 329 329 330 330 330 330 330 328 326 320 322 325 324 333 333 333 332 331 332 331
330 331 330 332 332 329 328 329 331 332 332 333 333 330 329 331 333 333 332 335 333 332 331 329 329 329 329 330 329 328 326 325 320 321 323 326 332 332 332 332 332 332 332
328 329 330 330 329 329 327 324 326 328 330 328 327 325 323 323 326 328 328 332 333 332 330 329 328 327 325 324 326 326 322 318 319 320 322 330 332 332 332 332 332 333 333
323 326 330 328 328 327 330 325 324 326 324 323 323 322 322 323 324 326 324 327 329 329 330 329 328 327 322 319 317 321 316 316 316 317 320 329 331 331 332 332 333 333 332
325 326 328 328 328 328 326 324 323 322 322 322 322 322 323 323 322 321 320 320 318 319 319 321 320 319 318 317 317 317 316 315 314 315 320 327 329 330 330 331 331 332 332
324 325 326 327 328 326 327 324 323 323 321 321 321 322 320 319 319 318 318 317 315 316 316 316 316 316 315 316 317 316 317 316 315 315 317 322 328 329 330 331 331 332 331
325 326 326 325 326 325 325 324 323 322 322 322 322 323 321 318 317 317 317 316 316 317 316 315 315 315 314 315 316 316 316 316 316 317 316 318 325 330 331 331 331 330 331
325 325 328 326 325 324 322 323 324 323 324 322 322 323 322 320 318 318 317 318 318 317 317 315 316 315 315 315 315 316 316 316 316 317 316 318 324 328 328 329 329 330 330
324 325 328 328 327 324 322 323 324 323 324 323 322 323 324 323 321 320 318 317 317 316 316 316 315 315 314 315 314 315 315 316 316 315 316 316 319 321 325 325 327 327 325
323 323 327 331 329 326 325 325 324 323 322 323 323 323 323 324 323 320 318 317 317 315 316 316 316 315 314 313 313 314 314 315 316 316 315 315 316 316 320 322 321 320 319
323 324 324 328 328 327 326 326 325 324 322 321 321 322 322 322 323 321 319 319 318 317 316 316 316 315 314 314 314 314 314 314 315 316 314 314 314 313 311 314 313 313 313
323 324 325 325 328 328 327 325 324 323 323 323 321 322 322 321 321 321 320 320 318 317 316 316 316 315 315 315 316 314 312 314 314 315 316 315 313 310 306 305 303 304 309
323 322 324 323 325 327 326 324 324 323 324 324 325 322 322 321 321 322 320 319 317 317 317 317 316 314 313 313 311 311 312 314 316 316 316 313 312 310 306 302 299 297 299
321 321 323 323 324 326 327 327 326 326 325 326 326 324 322 322 322 322 321 320 318 317 316 316 315 313 314 314 310 307 305 310 315 316 315 312 311 310 305 298 295 294 294
320 321 321 323 324 325 326 326 321 321 319 320 322 324 324 322 322 322 322 322 320 319 318 317 317 315 313 316 315 310 302 304 308 313 313 310 307 305 300 295 293 292 292
320 321 322 322 323 324 325 324 323 322 320 322 323 324 324 324 323 323 323 322 322 320 319 318 318 316 312 310 310 309 307 309 309 307 311 307 306 302 298 296 292 290 290
319 320 322 322 322 323 323 325 324 322 323 323 322 321 322 323 324 323 323 323 322 321 320 318 314 313 314 311 309 306 306 309 309 308 304 301 303 302 298 295 292 288 289
313 316 319 321 321 322 323 323 323 322 322 321 319 320 321 322 323 323 323 323 323 322 320 319 318 316 315 315 313 311 309 310 310 308 305 300 300 298 296 293 292 289 288
Wind_Speed
3 5 6 10 11 12 13 15 16 15 16 18 19 19 19 19 19 18 18 18 19 18 18 18 18 19 19 18 19 19 19 21 20 19 19 20 20 21 20 19 16 13 20
9 5 9 10 11 13 14 13 14 15 16 18 18 18 19 19 19 19 17 16 17 18 17 17 18 18 18 19 18 20 20 19 18 15 14 16 18 20 20 21 17 15 17
8 6 8 11 11 12 13 12 14 14 15 17 16 17 17 17 19 19 17 16 16 16 16 17 18 16 17 16 18 20 19 18 18 19 18 8 10 18 17 18 18 18 17
10 7 6 10 11 11 12 12 13 13 14 16 16 16 15 15 19 19 17 14 16 16 16 17 16 17 17 15 18 18 19 19 17 16 7 6 8 18 18 18 18 17 18
7 8 7 10 12 13 12 12 11 12 14 16 13 14 14 18 20 19 17 15 15 15 16 15 15 16 16 16 18 18 18 18 15 10 6 5 4 15 18 17 16 17 16
7 7 9 11 11 12 11 10 12 13 14 10 12 14 19 18 19 18 17 15 15 14 15 14 13 14 15 15 17 17 17 17 12 7 6 7 6 16 17 16 16 16 15
7 6 8 10 11 10 11 13 12 13 12 10 13 13 14 16 18 17 16 15 14 13 14 13 12 12 14 14 16 16 16 14 6 5 5 5 6 15 15 15 14 14 14
11 6 7 8 9 12 12 13 12 12 10 10 11 13 13 12 15 17 15 14 13 13 12 12 11 10 13 16 15 16 13 10 6 5 5 4 10 14 14 13 13 13 12
9 7 6 6 6 10 11 11 14 12 10 8 11 12 12 12 13 15 13 12 11 11 11 11 10 9 10 13 14 12 11 10 6 4 4 3 9 13 12 12 11 10 10
7 7 6 6 5 5 6 10 11 12 9 11 10 9 11 9 11 12 10 9 10 9 9 7 7 6 7 10 10 10 10 10 5 5 3 2 9 10 10 8 8 7 6
6 8 8 8 7 5 5 6 9 9 8 10 8 6 5 4 6 6 7 8 9 8 8 6 5 4 6 7 8 9 7 3 4 3 2 6 6 8 7 7 6 8 10
8 7 9 7 9 7 4 5 5 6 4 4 5 4 3 3 4 4 5 7 6 5 5 4 2 2 4 3 2 5 2 4 3 3 1 5 6 7 8 8 9 12 11
10 8 9 8 6 8 6 3 2 2 3 4 6 5 4 3 2 2 2 2 1 2 1 1 1 0 1 1 2 3 4 3 2 2 1 4 4 5 6 7 8 10 11
10 9 10 9 8 4 4 6 5 4 4 4 5 6 4 3 4 4 3 3 3 3 3 2 1 2 3 3 3 3 4 4 3 3 2 4 3 5 7 8 9 10 11
11 9 9 10 10 8 6 3 4 5 4 5 4 6 4 4 4 3 4 4 4 3 3 3 3 3 2 2 1 3 3 4 4 3 2 4 5 6 8 9 9 9 12
11 11 10 10 11 10 7 7 5 4 5 4 4 5 7 5 4 5 4 4 4 4 3 4 4 3 3 3 3 3 3 2 4 5 3 3 7 7 9 10 9 11 14
9 9 12 12 9 13 11 9 7 6 6 6 6 7 7 6 6 6 5 5 4 4 5 4 3 2 2 1 3 3 3 3 2 5 4 3 3 7 9 10 11 13 13
10 13 11 11 10 9 11 8 6 6 5 7 6 6 8 8 7 6 5 5 5 4 4 3 3 2 2 2 2 4 3 3 3 6 5 4 4 3 7 12 12 12 12
14 13 13 12 12 10 8 6 6 6 6 5 4 6 8 8 7 6 5 5 5 4 3 3 3 3 3 4 4 4 4 3 4 4 6 5 6 5 5 14 14 11 10
13 14 14 12 13 11 5 5 3 4 4 4 6 7 9 8 9 8 6 5 5 4 4 3 5 4 3 4 3 3 3 2 4 5 8 6 6 7 6 7 5 5 9
14 15 17 14 12 10 8 7 7 9 7 5 6 9 9 8 9 8 6 6 5 6 7 6 4 5 4 2 1 2 2 3 4 3 6 7 8 7 6 6 4 3 3
17 17 16 17 15 14 10 9 8 8 8 7 6 7 9 9 10 10 8 8 8 6 6 6 5 2 3 4 3 1 1 2 2 3 3 6 8 8 8 6 5 4 3
16 18 18 18 17 15 15 8 2 2 2 4 7 9 10 10 11 12 11 9 8 7 8 7 8 8 5 3 5 4 1 4 2 2 3 2 4 7 6 8 6 4 4
17 16 17 17 17 15 16 13 15 13 12 10 9 9 9 11 12 12 11 11 10 8 9 9 7 6 4 5 1 3 1 3 4 3 2 3 5 1 5 4 7 5 5
12 14 16 15 15 15 15 16 13 15 11 7 8 8 10 8 12 12 13 12 11 9 11 10 7 8 7 5 5 4 3 2 2 3 4 4 3 4 2 4 5 5 5
8 8 8 12 15 15 16 17 17 17 13 8 7 9 8 8 9 13 14 13 13 13 13 12 12 12 12 10 7 6 6 5 6 4 3 3 6 4 3 4 5 6 4
Wind_Direction
188 165 123 102 97 104 103 101 97 95 93 93 94 91 90 88 87 84 83 82 80 81 81 83 84 84 80 79 83 80 77 74 69 68 64 66 68 67 68 68 62 59 66
144 162 125 113 112 113 109 108 101 98 99 99 100 97 96 95 89 89 86 82 86 85 82 88 93 88 80 72 82 79 78 73 66 59 55 64 66 69 64 59 61 68 69
135 146 121 120 114 113 112 107 106 106 102 103 105 106 103 100 98 94 86 85 87 86 88 96 93 80 73 71 83 85 84 76 65 60 55 41 58 72 72 70 64 64 66
136 121 119 117 113 111 117 113 110 112 111 108 109 107 109 107 100 93 94 89 86 92 94 96 89 75 63 73 90 90 87 80 70 60 50 42 64 74 71 69 68 64 59
110 119 119 112 111 112 111 117 117 122 118 110 113 117 118 108 106 103 91 88 86 90 94 91 88 74 70 85 92 92 89 82 72 61 52 59 59 78 77 74 67 65 62
115 119 115 112 113 126 126 114 90 108 98 109 123 108 99 108 108 104 98 93 90 93 95 91 87 78 77 89 97 95 91 84 69 54 49 53 66 78 75 73 73 71 67
113 117 121 121 119 116 112 99 102 102 109 122 109 105 101 104 112 111 109 102 99 99 100 94 86 81 77 86 97 98 96 87 76 63 55 56 73 80 78 74 72 71 69
127 124 123 121 123 115 108 122 103 100 112 106 98 105 103 104 119 116 112 109 105 103 102 98 99 95 84 92 111 109 104 96 83 76 66 62 82 80 77 74 71 69 67
124 121 115 121 124 125 128 124 126 120 124 133 135 135 131 122 112 113 111 113 109 108 108 109 110 104 96 96 104 114 112 103 86 67 60 45 79 80 74 68 65 62 58
135 130 131 129 126 125 136 133 134 131 148 140 133 132 143 110 108 105 105 115 119 112 107 103 101 95 79 73 92 118 110 97 87 73 51 68 79 76 69 62 53 47 44
143 148 146 145 138 138 136 143 132 140 140 126 115 123 100 77 97 110 125 125 128 127 129 127 113 86 55 34 76 126 109 112 104 85 46 39 70 72 60 53 38 42 50
166 173 158 160 151 148 149 141 128 134 126 120 129 136 115 103 114 116 128 133 135 140 138 137 117 6 13 346 56 98 112 122 112 112 79 54 56 55 55 38 43 53 53
176 172 172 161 169 155 143 137 121 125 138 145 156 156 148 135 132 127 131 115 135 167 146 106 350 114 125 146 103 105 141 137 128 120 113 76 61 60 63 62 53 62 56
178 181 172 169 162 179 156 160 169 167 174 172 177 178 159 170 170 171 179 187 192 198 195 221 211 199 187 189 157 135 142 156 162 150 156 102 82 87 86 91 81 71 65
183 187 177 169 174 166 165 173 173 183 180 184 178 188 168 177 181 172 195 193 204 204 217 214 216 206 206 203 189 169 168 158 159 151 135 121 114 106 94 84 79 77 81
183 192 181 173 180 170 169 175 184 188 197 190 193 193 183 188 179 183 194 211 217 211 202 206 204 207 218 211 223 222 210 192 156 140 148 128 106 89 102 83 72 77 83
193 187 192 187 173 180 178 183 185 193 190 194 199 186 190 191 190 193 199 207 214 203 204 203 224 217 237 259 259 246 238 226 192 132 136 108 83 68 84 88 80 76 76
187 186 193 196 190 183 179 184 187 192 192 197 195 189 194 195 192 194 197 207 204 197 192 188 185 212 239 234 248 248 238 228 180 147 137 130 104 68 55 80 77 72 76
196 189 193 193 196 193 182 176 182 194 195 198 191 201 205 198 197 193 198 209 196 195 194 189 209 186 204 229 232 237 227 222 183 143 144 136 122 104 91 82 72 66 79
195 197 191 196 196 188 177 182 174 188 197 190 207 207 203 202 194 197 204 201 185 183 202 190 199 209 214 221 238 237 240 224 171 166 155 146 134 121 113 100 80 54 82
195 191 196 189 193 183 186 193 204 212 209 213 209 210 209 208 203 199 198 195 185 195 201 196 189 198 228 193 80 319 329 255 180 159 155 144 142 130 119 108 98 77 40
195 194 193 197 187 191 195 201 209 207 220 223 220 217 213 204 203 203 200 203 194 195 201 194 176 191 222 174 170 88 264 18 74 146 176 152 154 142 132 110 98 93 76
197 196 195 198 194 192 192 183 142 143 203 188 217 221 216 207 206 206 206 200 199 200 210 200 194 190 200 186 201 152 118 231 136 147 115 80 142 137 132 128 118 115 101
205 200 200 199 197 196 188 190 199 209 215 218 221 222 217 208 212 211 210 204 204 202 208 205 199 201 165 196 210 227 202 159 180 161 102 115 102 68 137 151 131 125 136
202 201 203 197 198 198 193 198 201 214 222 219 214 211 213 208 214 214 211 206 206 204 213 206 191 198 200 167 172 168 173 176 211 156 164 168 131 151 162 148 145 142 153
203 179 191 197 201 198 198 202 203 215 219 216 214 217 215 212 209 215 212 210 210 210 208 207 208 205 206 205 192 185 171 173 195 178 165 153 165 165 168 165 175 154 163